{"data":{"norad_id":89003,"epoch":"2026-09-15T14:04:03.982944Z","epoch_age_seconds":438833,"freshness":"STALE","line1":"1 89003U          26258.58615721  .00000169  00000+0  66721-4 0  9999","line2":"2 89003  74.0452 226.4487 0016387 220.2513 139.7428 14.36356221671299","mean_motion":14.36356221,"eccentricity":0.0016387,"inclination_deg":74.0452,"raan_deg":226.4487,"arg_perigee_deg":220.2513,"mean_anomaly_deg":139.7428,"bstar":6.6721e-5,"rev_number":67129,"period_min":100.25368212611,"perigee_km":758.84836283417,"apogee_km":782.27751200907,"semimajor_km":7148.6999374216,"source":"CELESTRAK","updated_at":"2026-09-20T09:00:32.481273Z"}}